,,,PA_Meas_PMT16A,,PR_Meas_QMR101_102,,RH_Meas_QMH101,,SR_Meas_QMS101,,TA_Meas_QMH101,,GenWind,,GenWind,
date,time,status,PA,status,PR,status,RH,status,SR,status,TA,status,DirAvg,status,SpdAvg,
2011-10-20, 00:00:04,VALID,998.323,VALID,0,VALID,91.0137,VALID,0.104696,VALID,24.0897,VALID,56,VALID,1.33125,
2011-10-20, 00:01:04,VALID,998.344,VALID,0,VALID,90.762,VALID,0.104696,VALID,24.1287,VALID,66,VALID,1.2418,
2011-10-20, 00:02:04,VALID,998.391,VALID,0,VALID,90.1592,VALID,0.104696,VALID,24.2067,VALID,73,VALID,1.28594,
2011-10-20, 00:03:04,VALID,998.402,VALID,0,VALID,89.2818,VALID,0.104696,VALID,24.3629,VALID,85,VALID,1.25586,
2011-10-20, 00:04:04,VALID,998.407,VALID,0,VALID,88.4883,VALID,0.104696,VALID,24.4604,VALID,69,VALID,1.34414,
2011-10-20, 00:05:04,VALID,998.398,VALID,0,VALID,87.6109,VALID,0,VALID,24.5385,VALID,64,VALID,0.976172,
2011-10-20, 00:06:04,VALID,998.402,VALID,0,VALID,86.8022,VALID,0.104696,VALID,24.6556,VALID,98,VALID,1.10078,
2011-10-20, 00:07:04,VALID,998.365,VALID,0,VALID,86.6801,VALID,0,VALID,24.7142,VALID,94,VALID,0.726953,
2011-10-20, 00:08:04,VALID,998.375,VALID,0,VALID,86.8937,VALID,0,VALID,24.716,VALID,89,VALID,0.109375,
2011-10-20, 00:09:04,VALID,998.379,VALID,0,VALID,87.115,VALID,0,VALID,24.716,VALID,89,VALID,0.00507812,
2011-10-20, 00:10:04,VALID,998.39,VALID,0,VALID,87.2905,VALID,0,VALID,24.6965,VALID,89,VALID,0.0414063,
2011-10-20, 00:11:04,VALID,998.408,VALID,0,VALID,87.2066,VALID,0,VALID,24.6556,VALID,89,VALID,0.278125,
2011-10-20, 00:12:04,VALID,998.374,VALID,0,VALID,87.321,VALID,0,VALID,24.6361,VALID,89,VALID,0,
2011-10-20, 00:13:04,VALID,998.375,VALID,0,VALID,87.2371,VALID,0,VALID,24.6184,VALID,89,VALID,0,
2011-10-20, 00:14:04,VALID,998.343,VALID,0,VALID,87.2447,VALID,0.104696,VALID,24.6166,VALID,89,VALID,0.164844,
2011-10-20, 00:15:04,VALID,998.32,VALID,0,VALID,86.9548,VALID,0.104696,VALID,24.6361,VALID,89,VALID,0.273047,
2011-10-20, 00:16:04,VALID,998.295,VALID,0,VALID,86.8403,VALID,0.104696,VALID,24.6946,VALID,89,VALID,0.344531,
2011-10-20, 00:17:04,VALID,998.295,VALID,0,VALID,87.6567,VALID,0,VALID,24.7337,VALID,238,VALID,0.8625,
2011-10-20, 00:18:04,VALID,998.294,VALID,0,VALID,88.084,VALID,0,VALID,24.6946,VALID,242,VALID,1.18164,
2011-10-20, 00:19:04,VALID,998.283,VALID,0,VALID,87.9466,VALID,0,VALID,24.7337,VALID,241,VALID,1.32891,
2011-10-20, 00:20:04,VALID,998.286,VALID,0,VALID,87.5651,VALID,0,VALID,24.8117,VALID,249,VALID,0.685156,
2011-10-20, 00:21:04,VALID,998.26,VALID,0,VALID,87.2294,VALID,0,VALID,24.8313,VALID,243,VALID,0.135156,
2011-10-20, 00:22:04,VALID,998.256,VALID,0,VALID,87.1074,VALID,0.104696,VALID,24.8313,VALID,233,VALID,0.752344,
2011-10-20, 00:23:04,VALID,998.19,VALID,0,VALID,86.9853,VALID,0,VALID,24.8313,VALID,242,VALID,1.11172,
2011-10-20, 00:24:04,VALID,998.18,VALID,0,VALID,86.8327,VALID,0,VALID,24.8898,VALID,242,VALID,0.848437,
2011-10-20, 00:25:04,VALID,998.19,VALID,0,VALID,86.8174,VALID,0.104696,VALID,24.9308,VALID,242,VALID,0.465625,
2011-10-20, 00:26:04,VALID,998.173,VALID,0,VALID,86.9624,VALID,0,VALID,24.9093,VALID,242,VALID,0.984375,
2011-10-20, 00:27:04,VALID,998.2,VALID,0,VALID,87.2294,VALID,0,VALID,24.8898,VALID,138,VALID,0.451172,
2011-10-20, 00:28:04,VALID,998.158,VALID,0,VALID,87.3439,VALID,0.104696,VALID,24.8703,VALID,131,VALID,0.161328,
2011-10-20, 00:29:04,VALID,998.135,VALID,0,VALID,87.4126,VALID,0,VALID,24.8313,VALID,139,VALID,0.410547,
2011-10-20, 00:30:04,VALID,998.079,VALID,0,VALID,87.6567,VALID,0.104696,VALID,24.8313,VALID,144,VALID,0.699219,
2011-10-20, 00:31:04,VALID,998.084,VALID,0,VALID,88.084,VALID,0.104696,VALID,24.7922,VALID,145,VALID,1.09648,
2011-10-20, 00:32:04,VALID,998.023,VALID,0,VALID,88.6638,VALID,0,VALID,24.6946,VALID,145,VALID,0.777734,
2011-10-20, 00:33:04,VALID,997.993,VALID,0,VALID,89.0834,VALID,0,VALID,24.6166,VALID,355,VALID,1.04766,
2011-10-20, 00:34:04,VALID,997.984,VALID,0,VALID,89.442,VALID,0.104696,VALID,24.519,VALID,351,VALID,1.09727,
2011-10-20, 00:35:04,VALID,997.984,VALID,0,VALID,89.8846,VALID,0.104696,VALID,24.4604,VALID,352,VALID,0.944141,
2011-10-20, 00:36:04,VALID,997.972,VALID,0,VALID,90.2355,VALID,0.104696,VALID,24.4019,VALID,352,VALID,0.462109,
2011-10-20, 00:37:04,VALID,997.942,VALID,0,VALID,90.4797,VALID,0.104696,VALID,24.3433,VALID,352,VALID,0.0320312,
2011-10-20, 00:38:04,VALID,997.917,VALID,0,VALID,90.5026,VALID,0,VALID,24.3062,VALID,329,VALID,0.448828,
2011-10-20, 00:39:04,VALID,997.934,VALID,0,VALID,90.5636,VALID,0,VALID,24.2866,VALID,329,VALID,0,
2011-10-20, 00:40:04,VALID,997.975,VALID,0,VALID,90.5636,VALID,0,VALID,24.2866,VALID,329,VALID,0,
2011-10-20, 00:41:04,VALID,997.971,VALID,0,VALID,90.6094,VALID,0,VALID,24.2866,VALID,329,VALID,0,
2011-10-20, 00:42:04,VALID,997.985,VALID,0,VALID,90.7009,VALID,0,VALID,24.2866,VALID,329,VALID,0.0613281,
2011-10-20, 00:43:04,VALID,998.023,VALID,0,VALID,90.7391,VALID,0,VALID,24.2671,VALID,329,VALID,0.352734,
2011-10-20, 00:44:04,VALID,998.021,VALID,0,VALID,90.6475,VALID,0,VALID,24.2476,VALID,39,VALID,0.746875,
2011-10-20, 00:45:04,VALID,998.028,VALID,0,VALID,90.7238,VALID,0,VALID,24.3062,VALID,64,VALID,1.07266,
2011-10-20, 00:46:04,VALID,998.072,VALID,0,VALID,90.6323,VALID,0,VALID,24.3062,VALID,54,VALID,1.11328,
2011-10-20, 00:47:04,VALID,998.054,VALID,0,VALID,90.6551,VALID,0,VALID,24.3257,VALID,61,VALID,0.684375,
2011-10-20, 00:48:04,VALID,998.059,VALID,0,VALID,90.8611,VALID,0,VALID,24.3452,VALID,74,VALID,0.749609,
2011-10-20, 00:49:04,VALID,998.059,VALID,0,VALID,91.0748,VALID,0,VALID,24.3257,VALID,80,VALID,1.06719,
2011-10-20, 00:50:04,VALID,998.02,VALID,0,VALID,91.2045,VALID,0,VALID,24.3062,VALID,79,VALID,0.602344,
2011-10-20, 00:51:04,VALID,998.024,VALID,0,VALID,91.2197,VALID,0,VALID,24.2671,VALID,79,VALID,0.670313,
2011-10-20, 00:52:04,VALID,998.052,VALID,0,VALID,91.2274,VALID,0,VALID,24.2476,VALID,79,VALID,0.986328,
2011-10-20, 00:53:04,VALID,998.036,VALID,0,VALID,91.2121,VALID,0,VALID,24.2263,VALID,79,VALID,0.778125,
2011-10-20, 00:54:04,VALID,998.086,VALID,0,VALID,91.2579,VALID,0.104696,VALID,24.2263,VALID,79,VALID,0.584766,
2011-10-20, 00:55:04,VALID,998.058,VALID,0,VALID,91.3571,VALID,0,VALID,24.2263,VALID,91,VALID,0.653516,
2011-10-20, 00:56:04,VALID,998.049,VALID,0,VALID,91.3723,VALID,0,VALID,24.2067,VALID,99,VALID,0.689453,
2011-10-20, 00:57:04,VALID,998.049,VALID,0,VALID,91.4791,VALID,0,VALID,24.2458,VALID,99,VALID,0.518359,
2011-10-20, 00:58:04,VALID,998.005,VALID,0,VALID,91.5631,VALID,0,VALID,24.2458,VALID,117,VALID,0.65625,
2011-10-20, 00:59:04,VALID,998.041,VALID,0,VALID,91.5936,VALID,0,VALID,24.2653,VALID,125,VALID,1.0168,
2011-10-20, 01:00:04,VALID,998.037,VALID,0,VALID,91.5554,VALID,0,VALID,24.2848,VALID,124,VALID,0.874219,
2011-10-20, 01:01:04,VALID,998.045,VALID,0,VALID,91.4944,VALID,0.104696,VALID,24.3238,VALID,145,VALID,0.911719,
2011-10-20, 01:02:04,VALID,998.029,VALID,0,VALID,91.2426,VALID,0.104696,VALID,24.3629,VALID,123,VALID,0.797266,
2011-10-20, 01:03:04,VALID,997.99,VALID,0,VALID,90.9527,VALID,0,VALID,24.3824,VALID,123,VALID,0.598828,
2011-10-20, 01:04:04,VALID,998.003,VALID,0,VALID,90.5941,VALID,0,VALID,24.3824,VALID,142,VALID,0.897656,
2011-10-20, 01:05:04,VALID,998.03,VALID,0,VALID,90.3576,VALID,0.104696,VALID,24.4214,VALID,182,VALID,1.30117,
2011-10-20, 01:06:04,VALID,998.074,VALID,0,VALID,90.2584,VALID,0,VALID,24.48,VALID,187,VALID,2.06953,
2011-10-20, 01:07:04,VALID,998.111,VALID,0,VALID,90.4339,VALID,0.104696,VALID,24.5971,VALID,199,VALID,2.18984,
2011-10-20, 01:08:04,VALID,998.125,VALID,0,VALID,89.6175,VALID,0,VALID,24.6946,VALID,205,VALID,2.18594,
2011-10-20, 01:09:04,VALID,998.16,VALID,0,VALID,88.7859,VALID,0,VALID,24.7727,VALID,205,VALID,1.81914,
2011-10-20, 01:10:04,VALID,998.17,VALID,0,VALID,88.3052,VALID,0,VALID,24.8313,VALID,207,VALID,1.30859,
2011-10-20, 01:11:04,VALID,998.14,VALID,0,VALID,88.1374,VALID,0.104696,VALID,24.8508,VALID,186,VALID,1.67109,
2011-10-20, 01:12:04,VALID,998.137,VALID,0,VALID,88.1145,VALID,0,VALID,24.8898,VALID,217,VALID,1.04883,
2011-10-20, 01:13:04,VALID,998.126,VALID,0,VALID,87.9695,VALID,0,VALID,24.8703,VALID,196,VALID,0.691406,
2011-10-20, 01:14:04,VALID,998.161,VALID,0,VALID,88.0534,VALID,0,VALID,24.9093,VALID,211,VALID,0.51875,
2011-10-20, 01:15:04,VALID,998.154,VALID,0,VALID,88.2976,VALID,0,VALID,24.9093,VALID,235,VALID,0.957031,
2011-10-20, 01:16:04,VALID,998.179,VALID,0,VALID,88.4426,VALID,0,VALID,24.8898,VALID,248,VALID,0.677734,
2011-10-20, 01:17:04,VALID,998.18,VALID,0,VALID,88.6028,VALID,0,VALID,24.8703,VALID,250,VALID,0.687109,
2011-10-20, 01:18:04,VALID,998.207,VALID,0,VALID,88.5951,VALID,0.104696,VALID,24.8508,VALID,218,VALID,0.957422,
2011-10-20, 01:19:04,VALID,998.21,VALID,0,VALID,88.3586,VALID,0,VALID,24.8898,VALID,191,VALID,1.02539,
2011-10-20, 01:20:04,VALID,998.24,VALID,0,VALID,87.2905,VALID,0,VALID,24.9484,VALID,196,VALID,0.957812,
2011-10-20, 01:21:04,VALID,998.262,VALID,0,VALID,87.588,VALID,0.104696,VALID,24.9874,VALID,237,VALID,0.991797,
2011-10-20, 01:22:04,VALID,998.28,VALID,0,VALID,87.8398,VALID,0,VALID,24.9679,VALID,237,VALID,0.503906,
2011-10-20, 01:23:04,VALID,998.265,VALID,0,VALID,88.0916,VALID,0,VALID,24.9308,VALID,220,VALID,0.808984,
2011-10-20, 01:24:04,VALID,998.261,VALID,0,VALID,88.4502,VALID,0,VALID,24.8722,VALID,185,VALID,1.17344,
2011-10-20, 01:25:04,VALID,998.231,VALID,0,VALID,88.6257,VALID,0,VALID,24.8722,VALID,186,VALID,1.26641,
2011-10-20, 01:26:04,VALID,998.196,VALID,0,VALID,88.5341,VALID,0,VALID,24.8722,VALID,207,VALID,1.07422,
2011-10-20, 01:27:04,VALID,998.143,VALID,0,VALID,88.4426,VALID,0,VALID,24.8722,VALID,179,VALID,1.23086,
2011-10-20, 01:28:04,VALID,998.072,VALID,0,VALID,87.733,VALID,0,VALID,24.8527,VALID,188,VALID,1.34883,
2011-10-20, 01:29:04,VALID,998.008,VALID,0,VALID,88.496,VALID,0,VALID,24.8722,VALID,178,VALID,2.2418,
2011-10-20, 01:30:04,VALID,998.002,VALID,0,VALID,88.4807,VALID,0,VALID,24.8917,VALID,190,VALID,2.28008,
2011-10-20, 01:31:04,VALID,997.99,VALID,0,VALID,88.0916,VALID,0,VALID,24.8917,VALID,190,VALID,2.40273,
2011-10-20, 01:32:04,VALID,997.973,VALID,0,VALID,87.3973,VALID,0,VALID,24.9112,VALID,191,VALID,2.525,
2011-10-20, 01:33:04,VALID,997.914,VALID,0,VALID,87.0845,VALID,0,VALID,24.9893,VALID,208,VALID,2.11562,
2011-10-20, 01:34:04,VALID,997.857,VALID,0,VALID,86.4589,VALID,0,VALID,25.0088,VALID,206,VALID,2.13906,
2011-10-20, 01:35:04,VALID,997.854,VALID,0,VALID,85.9934,VALID,0,VALID,25.0265,VALID,199,VALID,2.49297,
2011-10-20, 01:36:04,VALID,997.798,VALID,0,VALID,84.5743,VALID,0,VALID,25.0674,VALID,207,VALID,3.13906,
2011-10-20, 01:37:04,VALID,997.755,VALID,0,VALID,84.0555,VALID,0,VALID,25.1064,VALID,210,VALID,2.48047,
2011-10-20, 01:38:04,VALID,997.72,VALID,0,VALID,83.9716,VALID,0,VALID,25.1083,VALID,210,VALID,2.9875,
2011-10-20, 01:39:04,VALID,997.704,VALID,0,VALID,84.2157,VALID,0,VALID,25.0888,VALID,208,VALID,2.21563,
2011-10-20, 01:40:04,VALID,997.711,VALID,0,VALID,84.5667,VALID,0,VALID,25.0284,VALID,186,VALID,2.15547,
2011-10-20, 01:41:04,VALID,997.701,VALID,0,VALID,84.8185,VALID,0,VALID,25.0088,VALID,197,VALID,2.05625,
2011-10-20, 01:42:04,VALID,997.674,VALID,0,VALID,85.0092,VALID,0,VALID,24.9503,VALID,186,VALID,2.55,
2011-10-20, 01:43:04,VALID,997.624,VALID,0,VALID,85.116,VALID,0,VALID,24.9308,VALID,207,VALID,1.7418,
2011-10-20, 01:44:04,VALID,997.627,VALID,0,VALID,85.5586,VALID,0,VALID,24.9112,VALID,212,VALID,0.884375,
2011-10-20, 01:45:04,VALID,997.613,VALID,0,VALID,85.4975,VALID,0,VALID,24.8741,VALID,234,VALID,1.63359,
2011-10-20, 01:46:04,VALID,997.622,VALID,0,VALID,85.879,VALID,0,VALID,24.8741,VALID,217,VALID,1.04336,
2011-10-20, 01:47:04,VALID,997.663,VALID,0,VALID,85.8866,VALID,0,VALID,24.8136,VALID,195,VALID,0.522656,
2011-10-20, 01:48:04,VALID,997.69,VALID,0,VALID,86.2071,VALID,0,VALID,24.7746,VALID,229,VALID,0.241797,
2011-10-20, 01:49:04,VALID,997.714,VALID,0,VALID,86.3902,VALID,0,VALID,24.7356,VALID,229,VALID,0.349609,
2011-10-20, 01:50:04,VALID,997.765,VALID,0,VALID,86.4283,VALID,0,VALID,24.6965,VALID,156,VALID,0.68125,
2011-10-20, 01:51:04,VALID,997.807,VALID,0,VALID,86.6038,VALID,0,VALID,24.677,VALID,143,VALID,0.505859,
2011-10-20, 01:52:04,VALID,997.81,VALID,0,VALID,87.1532,VALID,0,VALID,24.638,VALID,132,VALID,0.930859,
2011-10-20, 01:53:04,VALID,997.787,VALID,0,VALID,87.8627,VALID,0,VALID,24.5794,VALID,120,VALID,1.02266,
2011-10-20, 01:54:04,VALID,997.749,VALID,0,VALID,88.3434,VALID,0,VALID,24.5209,VALID,120,VALID,0.733203,
2011-10-20, 01:55:04,VALID,997.742,VALID,0,VALID,88.4654,VALID,0,VALID,24.4818,VALID,120,VALID,0.455078,
2011-10-20, 01:56:04,VALID,997.713,VALID,0,VALID,88.557,VALID,0,VALID,24.4623,VALID,120,VALID,0.483984,
2011-10-20, 01:57:04,VALID,997.692,VALID,0,VALID,88.7172,VALID,0,VALID,24.4428,VALID,120,VALID,0.245312,
2011-10-20, 01:58:04,VALID,997.659,VALID,0,VALID,88.7935,VALID,0,VALID,24.4428,VALID,120,VALID,0.230859,
2011-10-20, 01:59:04,VALID,997.636,VALID,0,VALID,88.9232,VALID,0,VALID,24.4428,VALID,120,VALID,0.583594,
2011-10-20, 02:00:04,VALID,997.624,VALID,0,VALID,89.2284,VALID,0,VALID,24.3842,VALID,120,VALID,0.447266,
2011-10-20, 02:01:04,VALID,997.627,VALID,0,VALID,89.4649,VALID,0,VALID,24.3842,VALID,257,VALID,0.653906,
2011-10-20, 02:02:04,VALID,997.65,VALID,0,VALID,89.8388,VALID,0,VALID,24.3842,VALID,257,VALID,0.548828,
2011-10-20, 02:03:04,VALID,997.65,VALID,0,VALID,90.144,VALID,0,VALID,24.3452,VALID,257,VALID,0.6,
2011-10-20, 02:04:04,VALID,997.644,VALID,0,VALID,90.35,VALID,0,VALID,24.3257,VALID,257,VALID,0.540234,
2011-10-20, 02:05:04,VALID,997.629,VALID,0,VALID,90.4797,VALID,0,VALID,24.3257,VALID,257,VALID,0.399609,
2011-10-20, 02:06:04,VALID,997.6,VALID,0,VALID,90.6323,VALID,0,VALID,24.3062,VALID,257,VALID,0.521875,
2011-10-20, 02:07:04,VALID,997.578,VALID,0,VALID,90.617,VALID,0,VALID,24.2476,VALID,257,VALID,0.453906,
2011-10-20, 02:08:04,VALID,997.587,VALID,0,VALID,90.5636,VALID,0,VALID,24.2067,VALID,257,VALID,0.441016,
2011-10-20, 02:09:04,VALID,997.559,VALID,0,VALID,90.5712,VALID,0,VALID,24.1482,VALID,259,VALID,0.692187,
2011-10-20, 02:10:04,VALID,997.557,VALID,0,VALID,90.5331,VALID,0.104696,VALID,24.1482,VALID,264,VALID,0.638672,
2011-10-20, 02:11:04,VALID,997.583,VALID,0,VALID,90.5178,VALID,0.104696,VALID,24.1287,VALID,264,VALID,0.668359,
2011-10-20, 02:12:04,VALID,997.627,VALID,0,VALID,90.6017,VALID,0,VALID,24.1482,VALID,264,VALID,0.59375,
2011-10-20, 02:13:04,VALID,997.625,VALID,0,VALID,90.8306,VALID,0.104696,VALID,24.1677,VALID,254,VALID,0.80625,
2011-10-20, 02:14:04,VALID,997.639,VALID,0,VALID,91.029,VALID,0,VALID,24.1482,VALID,254,VALID,0.469531,
2011-10-20, 02:15:04,VALID,997.636,VALID,0,VALID,91.1129,VALID,0,VALID,24.1482,VALID,254,VALID,0.171094,
2011-10-20, 02:16:04,VALID,997.675,VALID,0,VALID,91.1663,VALID,0.104696,VALID,24.1482,VALID,254,VALID,0.525391,
2011-10-20, 02:17:04,VALID,997.691,VALID,0,VALID,91.2121,VALID,0,VALID,24.1482,VALID,254,VALID,0,
2011-10-20, 02:18:04,VALID,997.676,VALID,0,VALID,91.2579,VALID,0,VALID,24.1287,VALID,254,VALID,0.226172,
2011-10-20, 02:19:04,VALID,997.669,VALID,0,VALID,91.2655,VALID,0,VALID,24.1092,VALID,254,VALID,0.0894531,
2011-10-20, 02:20:04,VALID,997.657,VALID,0,VALID,91.2579,VALID,0,VALID,24.1092,VALID,254,VALID,0.0910156,
2011-10-20, 02:21:04,VALID,997.652,VALID,0,VALID,91.3494,VALID,0.104696,VALID,24.1287,VALID,254,VALID,0.483984,
2011-10-20, 02:22:04,VALID,997.654,VALID,0,VALID,91.4563,VALID,0.104696,VALID,24.1482,VALID,254,VALID,0.732813,
2011-10-20, 02:23:04,VALID,997.711,VALID,0,VALID,91.4334,VALID,0,VALID,24.1891,VALID,224,VALID,0.775,
2011-10-20, 02:24:04,VALID,997.757,VALID,0,VALID,91.2808,VALID,0,VALID,24.2086,VALID,218,VALID,0.468359,
2011-10-20, 02:25:04,VALID,997.773,VALID,0.5,VALID,91.1282,VALID,0,VALID,24.2086,VALID,188,VALID,0.569141,
2011-10-20, 02:26:04,VALID,997.723,VALID,0.5,VALID,91.1129,VALID,0,VALID,24.2476,VALID,186,VALID,0,
2011-10-20, 02:27:04,VALID,997.631,VALID,0.5,VALID,91.174,VALID,0,VALID,24.2086,VALID,186,VALID,0.273438,
2011-10-20, 02:28:04,VALID,997.646,VALID,0,VALID,91.3037,VALID,0,VALID,24.2086,VALID,186,VALID,0.325,
2011-10-20, 02:29:04,VALID,997.594,VALID,0,VALID,91.4944,VALID,0,VALID,24.1696,VALID,186,VALID,0.40625,
2011-10-20, 02:30:04,VALID,997.519,VALID,0.5,VALID,91.6165,VALID,0,VALID,24.1305,VALID,186,VALID,0.519141,
2011-10-20, 02:31:04,VALID,997.449,VALID,0.5,VALID,91.8148,VALID,0,VALID,24.111,VALID,294,VALID,0.503516,
2011-10-20, 02:32:04,VALID,997.453,VALID,0,VALID,92.0209,VALID,0,VALID,24.072,VALID,294,VALID,0.590625,
2011-10-20, 02:33:04,VALID,997.378,VALID,0,VALID,92.1734,VALID,0,VALID,23.9921,VALID,294,VALID,0.584766,
2011-10-20, 02:34:04,VALID,997.34,VALID,0,VALID,92.3184,VALID,0,VALID,23.9549,VALID,294,VALID,0.499219,
2011-10-20, 02:35:04,VALID,997.287,VALID,0,VALID,92.4863,VALID,0,VALID,23.9159,VALID,294,VALID,0.648047,
2011-10-20, 02:36:04,VALID,997.225,VALID,0,VALID,92.6236,VALID,0,VALID,23.8768,VALID,299,VALID,0.976953,
2011-10-20, 02:37:04,VALID,997.176,VALID,0,VALID,92.7609,VALID,0,VALID,23.8573,VALID,323,VALID,0.816016,
2011-10-20, 02:38:04,VALID,997.179,VALID,0,VALID,92.8677,VALID,0,VALID,23.8573,VALID,328,VALID,0.760938,
2011-10-20, 02:39:04,VALID,997.131,VALID,0,VALID,92.9745,VALID,0,VALID,23.8378,VALID,328,VALID,0.233594,
2011-10-20, 02:40:04,VALID,997.173,VALID,0,VALID,93.0814,VALID,0,VALID,23.8183,VALID,328,VALID,0.0046875,
2011-10-20, 02:41:04,VALID,997.184,VALID,0,VALID,93.1271,VALID,0,VALID,23.8183,VALID,303,VALID,0.832031,
2011-10-20, 02:42:04,VALID,997.181,VALID,0,VALID,93.1958,VALID,0,VALID,23.8183,VALID,231,VALID,1.12461,
2011-10-20, 02:43:04,VALID,997.182,VALID,0,VALID,93.2187,VALID,0,VALID,23.8378,VALID,231,VALID,1.08984,
2011-10-20, 02:44:04,VALID,997.194,VALID,0,VALID,93.234,VALID,0,VALID,23.8573,VALID,230,VALID,0.976953,
2011-10-20, 02:45:04,VALID,997.251,VALID,0,VALID,93.234,VALID,0,VALID,23.8963,VALID,193,VALID,1.26875,
2011-10-20, 02:46:04,VALID,997.253,VALID,0,VALID,93.2111,VALID,0,VALID,23.914,VALID,208,VALID,1.31992,
2011-10-20, 02:47:04,VALID,997.265,VALID,0,VALID,93.1653,VALID,0,VALID,23.9939,VALID,202,VALID,1.1543,
2011-10-20, 02:48:04,VALID,997.274,VALID,0,VALID,93.1119,VALID,0,VALID,23.9939,VALID,219,VALID,1.01641,
2011-10-20, 02:49:04,VALID,997.288,VALID,0,VALID,92.9898,VALID,0,VALID,24.0134,VALID,219,VALID,0.6,
2011-10-20, 02:50:04,VALID,997.293,VALID,0,VALID,92.8448,VALID,0,VALID,24.0134,VALID,219,VALID,0.683203,
2011-10-20, 02:51:04,VALID,997.301,VALID,0,VALID,92.6388,VALID,0,VALID,24.072,VALID,219,VALID,0.754297,
2011-10-20, 02:52:04,VALID,997.324,VALID,0,VALID,92.4481,VALID,0,VALID,24.072,VALID,219,VALID,0.753125,
2011-10-20, 02:53:04,VALID,997.326,VALID,0,VALID,92.1658,VALID,0,VALID,24.0915,VALID,219,VALID,0.585938,
2011-10-20, 02:54:04,VALID,997.333,VALID,0,VALID,91.9903,VALID,0,VALID,24.111,VALID,219,VALID,0.652734,
2011-10-20, 02:55:04,VALID,997.37,VALID,0,VALID,91.9598,VALID,0,VALID,24.1092,VALID,195,VALID,0.879297,
2011-10-20, 02:56:04,VALID,997.354,VALID,0,VALID,92.0743,VALID,0,VALID,24.1305,VALID,161,VALID,1.5,
2011-10-20, 02:57:04,VALID,997.336,VALID,0,VALID,92.1887,VALID,0,VALID,24.1305,VALID,167,VALID,1.25391,
2011-10-20, 02:58:04,VALID,997.275,VALID,0,VALID,92.2955,VALID,0,VALID,24.1305,VALID,168,VALID,1.20313,
2011-10-20, 02:59:04,VALID,997.234,VALID,0,VALID,92.3642,VALID,0,VALID,24.111,VALID,177,VALID,1.09844,
2011-10-20, 03:00:04,VALID,997.231,VALID,0,VALID,92.3413,VALID,0,VALID,24.0915,VALID,186,VALID,0.922656,
2011-10-20, 03:01:04,VALID,997.287,VALID,0,VALID,92.3184,VALID,0,VALID,24.111,VALID,186,VALID,0.513281,
2011-10-20, 03:02:04,VALID,997.295,VALID,0,VALID,92.3031,VALID,0,VALID,24.111,VALID,186,VALID,0.476563,
2011-10-20, 03:03:04,VALID,997.326,VALID,0,VALID,92.2955,VALID,0,VALID,24.1305,VALID,186,VALID,0.389844,
2011-10-20, 03:04:04,VALID,997.324,VALID,0,VALID,92.2345,VALID,0,VALID,24.072,VALID,337,VALID,0.828906,
2011-10-20, 03:05:04,VALID,997.318,VALID,0,VALID,92.2192,VALID,0,VALID,24.0134,VALID,337,VALID,0.720312,
2011-10-20, 03:06:04,VALID,997.353,VALID,0,VALID,92.2574,VALID,0,VALID,23.9744,VALID,337,VALID,0.603906,
2011-10-20, 03:07:04,VALID,997.345,VALID,0,VALID,92.3566,VALID,0,VALID,23.9354,VALID,337,VALID,0.56875,
2011-10-20, 03:08:04,VALID,997.311,VALID,0,VALID,92.4863,VALID,0,VALID,23.8963,VALID,337,VALID,0.566406,
2011-10-20, 03:09:04,VALID,997.213,VALID,0,VALID,92.5854,VALID,0,VALID,23.8768,VALID,337,VALID,0.774219,
2011-10-20, 03:10:04,VALID,997.176,VALID,0,VALID,92.6694,VALID,0,VALID,23.8378,VALID,337,VALID,0.650781,
2011-10-20, 03:11:04,VALID,997.169,VALID,0,VALID,92.7533,VALID,0,VALID,23.8183,VALID,337,VALID,0.647266,
2011-10-20, 03:12:04,VALID,997.117,VALID,0,VALID,92.8296,VALID,0,VALID,23.7988,VALID,337,VALID,0.805078,
2011-10-20, 03:13:04,VALID,997.156,VALID,0,VALID,92.9211,VALID,0,VALID,23.7793,VALID,337,VALID,0.951172,
2011-10-20, 03:14:04,VALID,997.168,VALID,0,VALID,92.9822,VALID,0,VALID,23.7597,VALID,337,VALID,0.883203,
2011-10-20, 03:15:04,VALID,997.175,VALID,0,VALID,93.0585,VALID,0,VALID,23.7207,VALID,337,VALID,0.523828,
2011-10-20, 03:16:04,VALID,997.209,VALID,0,VALID,93.1119,VALID,0,VALID,23.7207,VALID,337,VALID,0.233594,
2011-10-20, 03:17:04,VALID,997.197,VALID,0,VALID,93.1653,VALID,0,VALID,23.7012,VALID,337,VALID,0.0414063,
2011-10-20, 03:18:04,VALID,997.174,VALID,0,VALID,93.1958,VALID,0,VALID,23.6409,VALID,337,VALID,0,
2011-10-20, 03:19:04,VALID,997.151,VALID,0,VALID,93.2263,VALID,0,VALID,23.6427,VALID,337,VALID,0.117188,
2011-10-20, 03:20:04,VALID,997.112,VALID,0,VALID,93.2797,VALID,0,VALID,23.6427,VALID,347,VALID,0.929688,
2011-10-20, 03:21:04,VALID,997.064,VALID,0,VALID,93.3179,VALID,0,VALID,23.6622,VALID,23,VALID,1.07617,
2011-10-20, 03:22:04,VALID,997.042,VALID,0,VALID,93.3484,VALID,0,VALID,23.6817,VALID,23,VALID,0.733984,
2011-10-20, 03:23:04,VALID,997.066,VALID,0,VALID,93.4018,VALID,0,VALID,23.6817,VALID,28,VALID,1.01875,
2011-10-20, 03:24:04,VALID,997.103,VALID,0,VALID,93.4094,VALID,0,VALID,23.7012,VALID,29,VALID,0.941016,
2011-10-20, 03:25:04,VALID,997.144,VALID,0,VALID,93.4171,VALID,0,VALID,23.6994,VALID,49,VALID,0.534375,
2011-10-20, 03:26:04,VALID,997.181,VALID,0,VALID,93.4094,VALID,0,VALID,23.7207,VALID,49,VALID,0.704297,
2011-10-20, 03:27:04,VALID,997.225,VALID,0,VALID,93.4323,VALID,0,VALID,23.7402,VALID,49,VALID,0.796484,
2011-10-20, 03:28:04,VALID,997.273,VALID,0,VALID,93.4247,VALID,0,VALID,23.7402,VALID,49,VALID,0.721875,
2011-10-20, 03:29:04,VALID,997.3,VALID,0,VALID,93.4247,VALID,0,VALID,23.7189,VALID,49,VALID,0.569141,
2011-10-20, 03:30:04,VALID,997.325,VALID,0,VALID,93.3789,VALID,0,VALID,23.7012,VALID,49,VALID,0.383984,
2011-10-20, 03:31:04,VALID,997.384,VALID,0,VALID,93.4018,VALID,0,VALID,23.7402,VALID,49,VALID,0.446875,
2011-10-20, 03:32:04,VALID,997.405,VALID,0,VALID,93.4247,VALID,0,VALID,23.7384,VALID,49,VALID,0.521484,
2011-10-20, 03:33:04,VALID,997.4,VALID,0,VALID,93.4476,VALID,0.104696,VALID,23.7793,VALID,196,VALID,1.13672,
2011-10-20, 03:34:04,VALID,997.425,VALID,0,VALID,93.4628,VALID,0,VALID,23.797,VALID,200,VALID,1.33633,
2011-10-20, 03:35:04,VALID,997.45,VALID,0,VALID,93.4781,VALID,0,VALID,23.8165,VALID,205,VALID,0.751562,
2011-10-20, 03:36:04,VALID,997.5,VALID,0,VALID,93.4934,VALID,0,VALID,23.8555,VALID,205,VALID,0.833984,
2011-10-20, 03:37:04,VALID,997.551,VALID,0,VALID,93.4934,VALID,0,VALID,23.8945,VALID,205,VALID,0.588281,
2011-10-20, 03:38:04,VALID,997.613,VALID,0,VALID,93.501,VALID,0,VALID,23.9354,VALID,129,VALID,1.38789,
2011-10-20, 03:39:04,VALID,997.643,VALID,0,VALID,93.4628,VALID,0,VALID,23.914,VALID,115,VALID,1.90625,
2011-10-20, 03:40:04,VALID,997.699,VALID,0,VALID,93.4171,VALID,0,VALID,23.914,VALID,113,VALID,1.97539,
2011-10-20, 03:41:04,VALID,997.658,VALID,0,VALID,93.3789,VALID,0,VALID,23.9549,VALID,115,VALID,1.33789,
2011-10-20, 03:42:04,VALID,997.64,VALID,0,VALID,93.2416,VALID,0,VALID,23.8945,VALID,80,VALID,1.12578,
2011-10-20, 03:43:04,VALID,997.695,VALID,0,VALID,92.8754,VALID,0,VALID,23.9531,VALID,38,VALID,0.419531,